This demonstration page uses our WeatherBlox Daily Observations layout. Learn more.

Left ArrowRight Arrow

39.01783, -85.05884

Hourly Observations for July 28, 2021

Temp ( °F °C ) Dew Point ( °F °C ) Humidity (%) Winds ( mph kmh ) Pressure ( in mb ) Visibility ( mi km ) Precip ( " mm )
12:52 am 00:52 Clear 73 22.8 64 17.8 74 74 NW 3 6 30.03 1017 10 16 N/A
1:52 am 01:52 Clear 72 22.2 64 17.8 76 76 WNW 3 6 30.03 1017 10 16 N/A
2:52 am 02:52 Clear 72 22.2 64 17.8 76 76 N N/A 30.02 1017 10 16 N/A
3:52 am 03:52 Clear 71 21.7 64 17.8 79 79 N N/A 30.03 1017 10 16 N/A
4:52 am 04:52 Clear 69 20.6 64 17.8 84 84 W 3 6 30.04 1017 10 16 N/A
5:52 am 05:52 Clear 68 20 64 17.8 87 87 N N/A 30.04 1017 10 16 N/A
6:52 am 06:52 Sunny 68 20 63 17.2 84 84 N N/A 30.05 1018 7 11 N/A
7:52 am 07:52 Hazy 70 21.1 65 18.3 84 84 N N/A 30.06 1018 6 10 N/A
8:52 am 08:52 Mostly Cloudy 76 24.4 68 20 77 77 W 3 6 30.07 1018 7 11 N/A
9:52 am 09:52 Partly Cloudy 81 27.2 68 20 65 65 N N/A 30.06 1018 8 13 N/A
10:52 am 10:52 Mostly Cloudy 83 28.3 68 20 61 61 N 7 11 30.04 1017 9 14 N/A
11:52 am 11:52 Mostly Cloudy 83 28.3 67 19.4 59 59 NW 8 13 30.05 1018 10 16 N/A
12:52 pm 12:52 Mostly Cloudy 83 28.3 68 20 61 61 NW 8 13 30.06 1018 9 14 N/A
1:52 pm 13:52 Mostly Sunny 87 30.6 68 20 53 53 WNW 9 15 30.04 1017 9 14 N/A
2:52 pm 14:52 Mostly Sunny 86 30 67 19.4 53 53 VRB 6 9 30.03 1017 9 14 N/A
3:52 pm 15:52 Mostly Cloudy 87 30.6 68 20 53 53 NW 6 9 30.01 1016 10 16 N/A
4:52 pm 16:52 Cloudy 88 31.1 66 18.9 48 48 VRB 6 9 30.01 1016 10 16 N/A
5:52 pm 17:52 Mostly Cloudy 88 31.1 66 18.9 48 48 WNW 9 15 30.01 1016 10 16 N/A
6:52 pm 18:52 Mostly Cloudy 87 30.6 67 19.4 51 51 NW 9 15 30.00 1016 10 16 N/A
7:52 pm 19:52 Partly Cloudy 84 28.9 66 18.9 55 55 W 6 9 30.00 1016 10 16 N/A
8:52 pm 20:52 Partly Cloudy 82 27.8 67 19.4 60 60 W 5 7 29.98 1015 9 14 N/A
9:52 pm 21:52 Mostly Clear 79 26.1 69 20.6 72 72 WNW 3 6 29.99 1016 10 16 N/A
10:52 pm 22:52 Mostly Clear 76 24.4 69 20.6 79 79 WSW 3 6 30.00 1016 10 16 N/A
11:52 pm 23:52 Clear 75 23.9 69 20.6 82 82 N N/A 29.99 1016 10 16 N/A

Powered by AerisWeather